Eastsound, WA
on Tuesday, January 1, 2013

Tuesday
Previous Day Next Day
Daily Summary
 ActualAverage (KBLI)Record (KBLI)
Temperature
Mean Temperature °F 38°F  
Max Temperature 39°F 44°F 54°F (1992)
Min Temperature 32°F 32°F 9°F (1979)
Degree Days
Heating Degree Days 30 27  
Month to date heating degree days 27  
Cooling Degree Days 0 0  
Month to date cooling degree days 0  
Year to date cooling degree days 0  
Moisture
Dew Point 33°F   
Average Humidity 89    
Maximum Humidity 100    
Minimum Humidity 70    
Precipitation
Precipitation 0.00 in 0.14 in 0.65 in (1987)
Month to date precipitation 0.14  
Year to date precipitation 0.14  
Wind
Wind Speed 2 mph   
Max Wind Speed 8 mph   
Max Gust Speed mph   
Visibility 8 miles   
Events     

Key: T is trace of precipitation, MM is missing value
Source: NWS Daily Summary
Time(PST)TemperatureDew PointHumidity Pressure Visibility Wind DirectionWind SpeedGust SpeedPrecipitationEvents Conditions
12:15 AM 37.4°F 37.4°F 100% 30.46 in 8.0 miles Calm Calm - N/A   Overcast
12:35 AM 37.4°F 37.4°F 100% 30.46 in 7.0 miles Calm Calm - N/A   Overcast
12:55 AM 37.4°F 37.4°F 100% 30.46 in 8.0 miles Calm Calm - N/A   Overcast
1:15 AM 37.4°F 35.6°F 93% 30.46 in 5.0 miles Calm Calm - N/A   Overcast
1:35 AM 35.6°F 35.6°F 100% 30.46 in 5.0 miles Calm Calm - N/A   Overcast
1:55 AM 35.6°F 35.6°F 100% 30.47 in 4.0 miles Calm Calm - N/A   Mostly Cloudy
2:15 AM 35.6°F 35.6°F 100% 30.47 in 3.0 miles Calm Calm - N/A   Partly Cloudy
2:35 AM 33.8°F 33.8°F 100% 30.48 in 3.0 miles Calm Calm - N/A   Clear
2:55 AM 33.8°F 33.8°F 100% 30.47 in 3.0 miles Calm Calm - N/A   Clear
3:15 AM 32.0°F 32.0°F 100% 30.46 in 3.0 miles Calm Calm - N/A   Clear
3:35 AM 32.0°F 32.0°F 100% 30.46 in 3.0 miles Calm Calm - N/A   Clear
3:55 AM 32.0°F 32.0°F 100% 30.45 in 3.0 miles Calm Calm - N/A   Partly Cloudy
4:15 AM 32.0°F 32.0°F 100% 30.45 in 3.0 miles Calm Calm - N/A   Clear
4:35 AM 32.0°F 32.0°F 100% 30.45 in 2.5 miles Calm Calm - N/A   Scattered Clouds
4:55 AM 32.0°F 32.0°F 100% 30.45 in 1.5 miles Calm Calm - N/A   Mostly Cloudy
5:15 AM 32.0°F 32.0°F 100% 30.44 in 3.0 miles Calm Calm - N/A   Clear
5:35 AM 32.0°F 32.0°F 100% 30.45 in 3.0 miles Calm Calm - N/A   Scattered Clouds
5:55 AM 32.0°F 32.0°F 100% 30.45 in 4.0 miles Calm Calm - N/A   Overcast
6:15 AM 32.0°F 32.0°F 100% 30.46 in 4.0 miles Calm Calm - N/A   Overcast
6:35 AM 32.0°F 32.0°F 100% 30.46 in 5.0 miles Calm Calm - N/A   Mostly Cloudy
6:55 AM 32.0°F 32.0°F 100% 30.46 in 5.0 miles Calm Calm - N/A   Scattered Clouds
7:15 AM 32.0°F 32.0°F 100% 30.46 in 9.0 miles Calm Calm - N/A   Mostly Cloudy
7:35 AM 33.8°F 33.8°F 100% 30.47 in 8.0 miles Calm Calm - N/A   Overcast
7:55 AM 35.6°F 35.6°F 100% 30.47 in 9.0 miles East 3.5 mph - N/A   Overcast
8:15 AM 35.6°F 35.6°F 100% 30.48 in 10.0 miles Calm Calm - N/A   Overcast
8:35 AM 35.6°F 33.8°F 93% 30.48 in 10.0 miles NE 4.6 mph - N/A   Overcast
8:55 AM 35.6°F 32.0°F 87% 30.48 in 9.0 miles Calm Calm - N/A   Scattered Clouds
9:15 AM 35.6°F 32.0°F 87% 30.49 in 10.0 miles Calm Calm - N/A   Partly Cloudy
9:35 AM 35.6°F 32.0°F 87% 30.50 in 10.0 miles Calm Calm - N/A   Mostly Cloudy
9:55 AM 35.6°F 32.0°F 87% 30.51 in 10.0 miles NE 3.5 mph - N/A   Scattered Clouds
10:15 AM 35.6°F 32.0°F 87% 30.51 in 10.0 miles NE 4.6 mph - N/A   Clear
10:35 AM 35.6°F 32.0°F 87% 30.50 in 10.0 miles NE 4.6 mph - N/A   Clear
10:55 AM 35.6°F 32.0°F 87% 30.50 in 10.0 miles ENE 4.6 mph - N/A   Clear
11:15 AM 35.6°F 30.2°F 81% 30.49 in 10.0 miles NE 8.1 mph - N/A   Clear
11:35 AM 35.6°F 30.2°F 81% 30.48 in 10.0 miles ENE 4.6 mph - N/A   Clear
11:55 AM 35.6°F 30.2°F 81% 30.48 in 10.0 miles NNE 5.8 mph - N/A   Clear
12:15 PM 37.4°F 30.2°F 75% 30.48 in 10.0 miles NE 5.8 mph - N/A   Clear
12:35 PM 37.4°F 30.2°F 75% 30.47 in 10.0 miles NE 4.6 mph - N/A   Clear
12:55 PM 37.4°F 30.2°F 75% 30.46 in 10.0 miles NNE 5.8 mph - N/A   Clear
1:15 PM 37.4°F 32.0°F 81% 30.46 in 10.0 miles NE 5.8 mph - N/A   Clear
1:35 PM 37.4°F 32.0°F 81% 30.46 in 10.0 miles North 6.9 mph - N/A   Clear
1:55 PM 37.4°F 32.0°F 81% 30.45 in 10.0 miles North 4.6 mph - N/A   Clear
2:15 PM 37.4°F 32.0°F 81% 30.45 in 10.0 miles North 4.6 mph - N/A   Clear
2:35 PM 37.4°F 33.8°F 87% 30.45 in 10.0 miles North 5.8 mph - N/A   Partly Cloudy
2:55 PM 37.4°F 33.8°F 87% 30.45 in 10.0 miles North 8.1 mph - N/A   Partly Cloudy
3:15 PM 37.4°F 32.0°F 81% 30.45 in 10.0 miles North 5.8 mph - N/A   Partly Cloudy
3:35 PM 37.4°F 32.0°F 81% 30.45 in 10.0 miles North 3.5 mph - N/A   Clear
3:55 PM 37.4°F 32.0°F 81% 30.44 in 10.0 miles North 3.5 mph - N/A   Clear
4:15 PM 37.4°F 33.8°F 87% 30.45 in 10.0 miles North 4.6 mph - N/A   Clear
4:35 PM 37.4°F 33.8°F 87% 30.44 in 10.0 miles North 4.6 mph - N/A   Clear
4:55 PM 37.4°F 33.8°F 87% 30.43 in 10.0 miles North 4.6 mph - N/A   Partly Cloudy
5:15 PM 37.4°F 35.6°F 93% 30.42 in 10.0 miles North 5.8 mph - N/A   Clear
5:35 PM 37.4°F 33.8°F 87% 30.41 in 10.0 miles North 4.6 mph - N/A   Partly Cloudy
5:55 PM 37.4°F 35.6°F 93% 30.41 in 10.0 miles North 5.8 mph - N/A   Mostly Cloudy
6:15 PM 37.4°F 33.8°F 87% 30.41 in 10.0 miles North 4.6 mph - N/A   Scattered Clouds
6:35 PM 37.4°F 35.6°F 93% 30.40 in 10.0 miles North 3.5 mph - N/A   Partly Cloudy
6:55 PM 37.4°F 35.6°F 93% 30.39 in 10.0 miles Calm Calm - N/A   Clear
7:15 PM 39.2°F 32.0°F 75% 30.39 in 10.0 miles Calm Calm - N/A   Clear
7:35 PM 37.4°F 32.0°F 81% 30.39 in 10.0 miles NE 3.5 mph - N/A   Clear
7:55 PM 37.4°F 32.0°F 81% 30.39 in 10.0 miles Calm Calm - N/A   Clear
8:15 PM 37.4°F 32.0°F 81% 30.39 in 10.0 miles NNE 4.6 mph - N/A   Clear
8:35 PM 37.4°F 30.2°F 75% 30.38 in 10.0 miles NE 4.6 mph - N/A   Clear
8:55 PM 37.4°F 32.0°F 81% 30.37 in 10.0 miles NNE 5.8 mph - N/A   Clear
9:15 PM 37.4°F 32.0°F 81% 30.37 in 10.0 miles Calm Calm - N/A   Clear
9:55 PM 37.4°F 30.2°F 75% 30.38 in 10.0 miles NNE 5.8 mph - N/A   Clear
10:15 PM 37.4°F 28.4°F 70% 30.37 in 10.0 miles Calm Calm - N/A   Clear
10:35 PM 35.6°F 30.2°F 81% 30.37 in 10.0 miles NNE 4.6 mph - N/A   Clear
10:55 PM 35.6°F 30.2°F 81% 30.37 in 10.0 miles Calm Calm - N/A   Clear
11:15 PM 37.4°F 30.2°F 75% 30.37 in 10.0 miles Calm Calm - N/A   Clear
11:35 PM 35.6°F 30.2°F 81% 30.37 in 10.0 miles Calm Calm - N/A   Clear
Moon Phase
Jan. 01 Jan. 04 Jan. 11 Jan. 18 Jan. 26
Sunrise:08:04 AM (PST) Moon Rise:09:28 PM (PST)1/1
Sunset:04:26 PM (PST) Moon Set:09:56 AM (PST)1/1

Copyright © 2014 The Weather Underground, Inc.